World > North America > United States > Missouri > Webster Groves  

Webster Groves, MO Hourly Weather Updates

Feedback E-mail the Weather

Quick Clicks

Webster Groves, MO Weather Maps

°F °C°F °C
Webster Groves Weather Map
UTC Time: 6/17/2024, 19:29
Your Time:

Webster Groves, MO Regional Weather

Expires:202406172000;;189427
ASUS43 KEAX 171915
RWREAX

WEATHER ROUNDUP FOR EASTERN KANSAS AND NORTHWEST MISSOURI
NATIONAL WEATHER SERVICE KANSAS CITY/PLEASANT HILL MO
200 PM CDT MON JUN 17 2024


MOZ041-047>049-056>058-063>065-088>090-097-172000-
...EASTERN AND SOUTHERN MISSOURI...
  
CITY           SKY/WX    TMP DP  RH WIND       PRES   REMARKS
ST. LOUIS INTL MOSUNNY   95  69  42 S13G23    29.93F HX 100           
SPIRIT OF STL  MOSUNNY   91  70  49 SE13      29.91S HX  96           
COLUMBIA       MOSUNNY   91  70  49 S14       29.90F HX  96           
JEFFERSON CITY MOSUNNY   93  69  45 S8G21     29.88F HX  98           
MEXICO         MOSUNNY   91  72  52 S10       29.91S HX  98           
HANNIBAL       MOSUNNY   93  68  43 S14G22    29.90F HX  97           
ROLLA          MOSUNNY   91  73  55 S9        29.95S HX  99           
LEBANON        MOSUNNY   90  70  51 S12       29.95S HX  95           
OSAGE BEACH    MOSUNNY   90  72  55 S7G16     29.91S HX  97           
SPRINGFIELD    MOSUNNY   87  72  60 S17       29.91S HX  93           
BRANSON        MOSUNNY   88  72  58 S12       29.96S HX  94           
JOPLIN         PTSUNNY   88  71  57 S13G23    29.88R HX  94           
WEST PLAINS    MOSUNNY   86  68  54 S12G23    30.00S                  

$$


SKY/WX - Weather  TMP - Temperature  DP - Dew Point  RH - Humidity
WIND - Wind Direction/Speed PRES - Barometric Pressure VSB - Visibility
WCI - Wind Chill Index E13G22 Wind - East Wind 13 mph/Gusts of 22 mph

Trending Headlines

Trending Entertainment Headlines

Webster Groves Radar Loop

Use the map search tool if you want to place a location marker on the radar map...

Webster Groves Quick Facts

National Two Day Weather Forecast


E-mail the Webster Groves Weather Forecast

Voice your opinion or tell us about page issues...